This is the latest recevied weather packets stored in our database for station/object KB7KFC-3. If no packets are shown the sender has not sent any weather packets the latest 10 day(s).
| Time | Temp. | Humidity | Pressure | Rain* | Wind** | Luminosity | Snow |
|---|---|---|---|---|---|---|---|
| 1778003164 | 23.33° C | 38% | 1012.6 hPa | 0 mm | - | - | - |
| 1778002804 | 23.33° C | 39% | 1012.8 hPa | 0 mm | - | - | - |
| 1778002624 | 23.33° C | 40% | 1012.8 hPa | 0 mm | - | - | - |
| 1778002445 | 22.78° C | 41% | 1012.7 hPa | 0 mm | - | - | - |
| 1778002265 | 22.78° C | 42% | 1012.7 hPa | 0 mm | - | - | - |
| 1778002084 | 22.22° C | 43% | 1012.7 hPa | 0 mm | - | - | - |
| 1778001906 | 22.22° C | 41% | 1012.8 hPa | 0 mm | - | - | - |
| 1778001724 | 22.78° C | 41% | 1012.7 hPa | 0 mm | - | - | - |
| 1778001545 | 22.78° C | 41% | 1012.6 hPa | 0 mm | - | - | - |
| 1778001365 | 22.78° C | 42% | 1012.6 hPa | 0 mm | - | - | - |
| 1778001185 | 22.78° C | 40% | 1012.7 hPa | 0 mm | - | - | - |
| 1778001004 | 22.78° C | 43% | 1012.7 hPa | 0 mm | - | - | - |
| 1778000644 | 22.22° C | 44% | 1012.7 hPa | 0 mm | - | - | - |
| 1777999745 | 21.67° C | 45% | 1012.8 hPa | 0 mm | - | - | - |
| 1777999565 | 21.67° C | 45% | 1012.7 hPa | 0 mm | - | - | - |
| 1777999204 | 21.67° C | 47% | 1012.8 hPa | 0 mm | - | - | - |
| 1777999025 | 21.67° C | 46% | 1012.7 hPa | 0 mm | - | - | - |
| 1777998845 | 21.67° C | 45% | 1012.8 hPa | 0 mm | - | - | - |
| 1777998484 | 21.67° C | 47% | 1012.8 hPa | 0 mm | - | - | - |
| 1777998304 | 21.67° C | 49% | 1012.7 hPa | 0 mm | - | - | - |
| 1777997944 | 21.11° C | 48% | 1012.7 hPa | 0 mm | - | - | - |
| 1777997584 | 21.11° C | 48% | 1012.8 hPa | 0 mm | - | - | - |
| 1777997404 | 21.11° C | 48% | 1012.8 hPa | 0 mm | - | - | - |
| 1777997044 | 20.56° C | 51% | 1012.9 hPa | 0 mm | - | - | - |
| 1777996684 | 20.56° C | 52% | 1012.9 hPa | 0 mm | - | - | - |
* Rain latest hour (hover to see other rain measurements)
** Current wind speed in m/s (hover to see current wind gust speed)